Alsosag, Hungary

2:28 PM CET on February 22, 2017 (GMT +0100)
Papa

Weather History for LHPA - October, 2013

Change the Weather History Date:

Saturday, October 12, 2013

  Actual Average Record
Temperature  
Mean Temperature 60 °F -  
Max Temperature 69 °F - - ()
Min Temperature 50 °F - - ()
Degree Days  
Heating Degree Days 6    
Growing Degree Days 10 (Base 50)    
Moisture  
Dew Point 54 °F    
Average Humidity 89    
Maximum Humidity 100    
Minimum Humidity 64    
Precipitation  
Precipitation 0.00 in - - ()
Sea Level Pressure  
Sea Level Pressure 30.11 in    
Wind  
Wind Speed 3 mph ()    
Max Wind Speed 9 mph    
Max Gust Speed -    
Visibility 5.6 miles    
Events Rain    
T = Trace of Precipitation, MM = Missing Value Source: Averaged Metar Reports

Daily Weather History Graph

Daily Weather History Graph

Search for Another Location

Airport or City:

Trip Planner

Search our weather history database for the weather conditions in past years. The results will help you decide how hot, cold, wet, or windy it might be!

Date:

Astronomy

Oct. 12, 2013 Rise Set
Actual Time 7:04 AM CEST 6:08 PM CEST
Civil Twilight 6:33 AM CEST 6:38 PM CEST
Nautical Twilight 5:57 AM CEST 7:14 PM CEST
Astronomical Twilight 5:22 AM CEST 7:49 PM CEST
Moon 2:27 PM CEST (10/12) No Moon Set
Length of Visible Light 12h 05m
Length of Day
11h 04m
First Quarter, 55% of the Moon is Illuminated
Oct 12
First Quarter
Oct 19
Full
Oct 27
Last Quarter
Nov 3
New
Nov 10
First Quarter

Hourly Weather History & Observations

Time (CEST) Temp. Dew Point Humidity Pressure Visibility Wind Dir Wind Speed Gust Speed Precip Events Conditions
12:15 AM 51.8 °F 50.0 °F 94% 30.09 in 6.2 mi Calm Calm - N/A Rain Light Rain
12:45 AM 51.8 °F 51.8 °F 100% 30.09 in 6.2 mi East 4.5 mph - N/A Rain Light Rain
1:15 AM 51.8 °F 51.8 °F 100% 30.12 in 6.2 mi ESE 2.2 mph - N/A Rain Light Rain
1:45 AM 51.8 °F 51.8 °F 100% 30.09 in 6.2 mi ENE 2.2 mph - N/A Rain Light Rain
2:15 AM 51.8 °F 51.8 °F 100% 30.12 in 5.0 mi West 2.2 mph - N/A Rain Light Rain
2:45 AM 51.8 °F 51.8 °F 100% 30.12 in 5.0 mi WSW 6.7 mph - N/A Rain Light Rain
3:15 AM 50.0 °F 50.0 °F 100% 30.12 in 5.0 mi WNW 2.2 mph - N/A Rain Light Rain
3:19 AM 50.0 °F 50.0 °F 100% 30.12 in 5.0 mi WNW 2.2 mph - N/A   Mostly Cloudy
3:45 AM 50.0 °F 50.0 °F 100% 30.12 in 5.0 mi Calm Calm - N/A   Unknown
4:15 AM 50.0 °F 50.0 °F 100% 30.12 in 5.0 mi SW 4.5 mph - N/A   Mostly Cloudy
4:45 AM 50.0 °F 50.0 °F 100% 30.12 in 5.0 mi SW 4.5 mph - N/A   Mostly Cloudy
5:15 AM 50.0 °F 50.0 °F 100% 30.12 in 4.3 mi SE 2.2 mph - N/A   Unknown
5:45 AM 50.0 °F 50.0 °F 100% 30.12 in 3.7 mi SSE 2.2 mph - N/A   Unknown
6:15 AM 50.0 °F 50.0 °F 100% 30.12 in 3.7 mi ESE 2.2 mph - N/A   Unknown
6:45 AM 50.0 °F 50.0 °F 100% 30.12 in 5.0 mi SE 2.2 mph - N/A   Unknown
7:15 AM 50.0 °F 50.0 °F 100% 30.12 in 5.0 mi Calm Calm - N/A   Unknown
7:45 AM 50.0 °F 50.0 °F 100% 30.12 in - North 2.2 mph - N/A   Clear
8:15 AM 51.8 °F 51.8 °F 100% 30.12 in - North 2.2 mph - N/A   Clear
8:45 AM 53.6 °F 51.8 °F 94% 30.12 in - East 2.2 mph - N/A   Clear
9:15 AM 55.4 °F 50.0 °F 82% 30.12 in - ESE 2.2 mph - N/A   Clear
9:45 AM 57.2 °F 51.8 °F 82% 30.12 in - SW 2.2 mph - N/A   Clear
10:15 AM 57.2 °F 51.8 °F 82% 30.15 in - WSW 8.9 mph - N/A   Clear
10:45 AM 55.4 °F 50.0 °F 82% 30.15 in - West 6.7 mph - N/A   Clear
11:15 AM 57.2 °F 50.0 °F 77% 30.15 in - West 4.5 mph - N/A   Clear
11:45 AM 59.0 °F 50.0 °F 72% 30.15 in - South 2.2 mph - N/A   Clear
12:15 PM 59.0 °F 51.8 °F 77% 30.12 in - East 4.5 mph - N/A   Clear
12:45 PM 60.8 °F 53.6 °F 77% 30.12 in - East 6.7 mph - N/A   Clear
1:15 PM 62.6 °F 55.4 °F 77% 30.12 in - ENE 4.5 mph - N/A   Clear
1:45 PM 64.4 °F 55.4 °F 73% 30.09 in - NNE 4.5 mph - N/A   Clear
2:15 PM 66.2 °F 57.2 °F 73% 30.09 in 6.2 mi NE 6.7 mph - N/A   Mostly Cloudy
2:45 PM 68.0 °F 57.2 °F 68% 30.09 in 6.2 mi SW 2.2 mph - N/A   Mostly Cloudy
3:15 PM 68.0 °F 57.2 °F 68% 30.06 in 6.2 mi SW 4.5 mph - N/A   Mostly Cloudy
3:45 PM 69.8 °F 57.2 °F 64% 30.06 in 6.2 mi SW 2.2 mph - N/A   Mostly Cloudy
4:15 PM 69.8 °F 59.0 °F 68% 30.06 in 6.2 mi South 2.2 mph - N/A   Mostly Cloudy
4:45 PM 69.8 °F 57.2 °F 64% 30.06 in 6.2 mi ESE 8.9 mph - N/A   Mostly Cloudy
5:15 PM 66.2 °F 59.0 °F 78% 30.06 in 6.2 mi South 4.5 mph - N/A   Mostly Cloudy
5:45 PM 66.2 °F 59.0 °F 78% 30.09 in - WSW 4.5 mph - N/A   Clear
6:15 PM 64.4 °F 57.2 °F 77% 30.09 in - WSW 6.7 mph - N/A   Clear
6:45 PM 62.6 °F 57.2 °F 82% 30.09 in - WSW 6.7 mph - N/A   Clear
7:15 PM 62.6 °F 55.4 °F 77% 30.12 in 6.2 mi WSW 8.9 mph - N/A   Mostly Cloudy
7:27 PM 60.8 °F 55.4 °F 82% 30.12 in 6.2 mi West 8.9 mph - N/A Rain Light Rain
7:45 PM 59.0 °F 55.4 °F 88% 30.12 in 6.2 mi WSW 4.5 mph - N/A Rain Light Rain
8:15 PM 57.2 °F 57.2 °F 100% 30.12 in 6.2 mi SSE 6.7 mph - N/A Rain Light Rain
8:45 PM 57.2 °F 57.2 °F 100% 30.12 in 6.2 mi SE 4.5 mph - N/A Rain Light Rain
9:15 PM 57.2 °F 57.2 °F 100% 30.09 in 6.2 mi SE 4.5 mph - N/A Rain Light Rain
9:45 PM 57.2 °F 57.2 °F 100% 30.09 in 6.2 mi Calm Calm - N/A Rain Light Rain
10:02 PM 57.2 °F 57.2 °F 100% 30.09 in 6.2 mi Calm Calm - N/A   Mostly Cloudy
10:15 PM 57.2 °F 57.2 °F 100% 30.12 in 6.2 mi SW 2.2 mph - N/A   Mostly Cloudy
10:45 PM 57.2 °F 57.2 °F 100% 30.12 in 5.0 mi Calm Calm - N/A   Mostly Cloudy
11:15 PM 57.2 °F 57.2 °F 100% 30.12 in 5.0 mi South 2.2 mph - N/A   Mostly Cloudy
11:45 PM 57.2 °F 57.2 °F 100% 30.12 in 5.0 mi SSW 4.5 mph - N/A   Mostly Cloudy